SENTINEL-5P (42969 NORAD) Tracking and Keplerian Element Data

This shows tracking and keplerian element data for the satellite.

Feedback or suggestion? Click here.




ElementValue
Catalog42969
NameSENTINEL-5P
Epoch Orbit3935
Epoch Day198.84671901
Epoch Year2018
RAAN138.1546
Inclination98.7386
Eccentricity0.0001115
Argument of Perigee85.6026
Mean Anonmoly274.5277
Mean Motion14.19539128
Decay Rate-1.9E-07
L11 42969U 17064A 18198.84671901 -.00000019 00000-0 11908-4 0 9995
L22 42969 98.7386 138.1546 0001115 85.6026 274.5277 14.19539128 39353

Live tracking and technical data element details for SENTINEL-5P (NORAD 42969). SENTINEL-5P can be tracked NOW for your location showing map with azimuth and elevation plus other details from your city location.

Track the satellite on the map from your city or location and see movement details for azimuth, elevation, latitude, longitude, range, height, and movement on the map or in text.







IsCatalogInMostPopularTable: catalog: 42969, numindb: 101
Update: records affected: 1



GetName: 42969 SENTINEL-5P

Hit Count: updated at: Sat, 21 Jul 2018 07:37:42 GMT